Vertical_Velocity
-2 -1 -2 -1 -2 -1 -2 -1 -1 -1 -0 0 0 -0 -0 0 -1 -0 -1 -1 -1 -2 -2 -1 -1 -2 -1 -1 -1 -1 -1 -1 -1
-1 -2 -2 -2 -1 -1 -1 -1 -1 -2 0 -1 1 0 -0 1 -0 -0 -1 -1 -1 -2 -1 -1 -2 -1 -0 -0 -1 -1 -0 -1 -2
0 -1 -1 -2 -0 -1 -1 -1 0 -0 0 0 -1 0 -0 -0 -0 0 -0 -1 -2 -2 -1 -1 -2 -1 -1 -1 -1 -1 -1 -1 -1
-1 1 -1 -1 -1 -1 -0 0 -1 -0 -2 -0 0 -0 -1 -1 -1 -2 -2 -1 -1 -1 -1 -1 -1 -2 -3 -1 -1 -1 -2 -2 -2
0 0 -0 0 -1 -1 -0 -1 -1 -0 -1 -1 -1 -1 -1 -1 -1 -1 -0 -1 -1 -1 -2 -1 -1 -2 -1 -2 -1 -1 -1 0 -0
1 -1 -0 0 -1 -0 -1 0 -1 -0 -0 0 -0 -1 -1 -1 -2 -1 -0 -0 -0 -1 -2 -2 -3 -3 -1 -2 -0 -1 -1 -1 -2
-0 -1 0 1 -0 -0 0 -1 -0 -0 -0 -1 -0 -0 -1 -1 -0 -1 -1 -1 -2 -2 -2 -1 -3 -1 -1 -2 -2 -2 -1 -2 -1
-2 -0 -0 0 -1 -1 -1 -1 -0 -1 -0 -0 -1 -1 -1 -1 -0 -0 -1 -2 -1 -2 -2 -1 -1 -2 -2 -2 -3 -3 -2 -1 -2
-1 -1 -1 -0 1 -1 0 -0 -1 -0 -0 -1 -1 -1 -1 -1 -1 -2 -1 0 -2 -3 -2 -3 -2 -2 1 1 -0 1 -1 -1 -0
-1 0 -0 -0 0 -0 1 0 1 0 1 -0 0 -1 -0 -1 -0 -1 -1 -2 -0 -3 -2 -4 -2 -3 -2 -1 -1 -1 1 -0 -0
-0 0 -0 -1 -2 -1 -0 -0 -1 -0 -0 0 -1 -0 -2 -2 -1 1 -1 -2 -1 -1 -1 -1 -4 0 -2 -4 -4 -1 -3 -2 -0
-1 0 0 1 1 -0 -0 0 -1 -1 0 -1 -2 -1 -1 -1 -2 -1 1 -0 -1 0 1 1 -3 -2 -1 1 -7 -3 -3 -3 -1
-0 1 -1 -1 -1 -0 1 -2 1 -1 -1 0 -1 -1 -1 -2 1 1 1 -0 -1 -1 -2 -0 2 -2 -4 -2 -2 -1 -1 -1 -1
-3 -3 1 1 -2 -0 -0 -0 -0 -1 1 -1 -1 -1 -1 0 0 -2 -1 -2 -2 -3 -1 -2 2 -0 -4 -4 -1 -3 -4 -2 -2
1 2 2 -0 -0 -5 1 0 -2 -1 -2 -0 -3 -1 -1 -2 -2 -1 -2 -1 -2 -0 -1 2 -1 -1 -1 -2 -6 -8 -4 2 -1
-2 -0 0 -1 -3 -2 -4 -1 0 1 2 2 -0 -1 -1 -2 -1 -3 -1 0 -1 1 -1 -1 -0 0 1 2 -0 -2 -6 5 0
1 -1 2 -4 -2 -4 -6 -3 -1 -6 -3 -3 -1 -5 -6 -2 -0 -2 -0 -2 -1 -0 0 -1 -4 -3 -3 7 1 -3 -1 -3 6
5 3 -1 -2 1 -1 0 -4 6 1 1 0 4 2 -0 -1 -1 -2 -0 -0 -3 -2 -3 1 -1 -1 -3 -5 -0 -2 -0 -3 -1
-1 1 4 10 4 4 8 9 9 -2 -1 2 -0 2 -1 -4 7 -2 1 1 -0 0 -1 -2 -0 -3 -4 -4 -3 -3 -2 -3 1
7 26 62 9 13 13 3 9 7 -2 -5 -2 -1 1 2 1 2 1 -5 0 3 -1 1 -1 -1 -1 -4 -3 -4 -2 -2 -2 1
Height
5886 5886 5887 5888 5889 5889 5889 5890 5890 5891 5892 5893 5893 5893 5893 5892 5892 5891 5890 5888 5888 5887 5885 5883 5881 5879 5877 5874 5871 5869 5866 5863 5859
5884 5884 5885 5886 5886 5888 5888 5888 5889 5889 5891 5892 5893 5893 5893 5892 5891 5890 5889 5888 5886 5885 5884 5882 5880 5878 5876 5873 5869 5866 5863 5860 5857
5882 5882 5883 5884 5884 5886 5887 5887 5888 5888 5889 5890 5891 5891 5892 5892 5891 5890 5888 5887 5886 5884 5883 5881 5879 5876 5874 5870 5867 5863 5861 5858 5855
5880 5880 5881 5882 5883 5884 5885 5886 5885 5886 5887 5888 5889 5889 5889 5889 5889 5888 5887 5886 5884 5883 5881 5879 5877 5874 5872 5869 5865 5861 5858 5855 5852
5877 5879 5879 5879 5880 5881 5882 5883 5884 5884 5885 5886 5886 5887 5887 5887 5886 5886 5885 5884 5882 5880 5879 5877 5874 5872 5869 5866 5863 5859 5856 5852 5849
5874 5876 5877 5877 5877 5878 5879 5880 5881 5882 5883 5883 5884 5884 5884 5884 5884 5883 5882 5881 5880 5878 5877 5875 5872 5869 5867 5864 5860 5856 5852 5849 5846
5871 5873 5876 5876 5876 5876 5877 5878 5878 5879 5880 5881 5881 5881 5882 5881 5881 5881 5880 5878 5877 5876 5875 5872 5870 5867 5864 5861 5857 5853 5849 5846 5842
5868 5870 5872 5874 5873 5874 5875 5875 5876 5877 5877 5877 5878 5878 5878 5878 5877 5876 5876 5874 5873 5872 5870 5868 5866 5863 5861 5858 5853 5849 5845 5841 5838
5865 5866 5868 5870 5870 5871 5871 5872 5873 5873 5874 5874 5874 5873 5873 5874 5873 5873 5872 5871 5869 5868 5866 5863 5861 5859 5857 5854 5851 5846 5841 5837 5833
5861 5863 5864 5866 5867 5867 5868 5869 5869 5870 5870 5870 5870 5870 5869 5869 5869 5869 5868 5866 5865 5863 5861 5859 5856 5854 5851 5848 5845 5841 5836 5832 5829
5856 5858 5860 5862 5862 5862 5864 5865 5865 5865 5866 5866 5865 5865 5865 5864 5864 5863 5862 5861 5860 5859 5857 5854 5851 5849 5846 5842 5838 5835 5831 5828 5824
5851 5853 5855 5857 5858 5857 5857 5858 5859 5860 5860 5860 5860 5860 5860 5859 5858 5858 5856 5856 5854 5853 5850 5849 5846 5842 5839 5837 5833 5830 5826 5822 5819
5846 5847 5849 5850 5851 5852 5853 5853 5852 5853 5853 5852 5853 5853 5853 5852 5851 5850 5850 5849 5848 5847 5845 5842 5840 5836 5833 5831 5827 5824 5821 5816 5813
5840 5842 5843 5844 5845 5845 5846 5846 5846 5846 5846 5845 5845 5845 5844 5843 5843 5843 5843 5842 5841 5839 5838 5836 5833 5830 5827 5824 5821 5817 5813 5810 5805
5834 5834 5836 5838 5839 5838 5838 5839 5840 5840 5840 5839 5837 5837 5836 5837 5837 5837 5835 5834 5833 5832 5830 5828 5825 5823 5821 5816 5812 5809 5805 5802 5798
5828 5828 5830 5831 5832 5833 5833 5830 5831 5832 5832 5831 5830 5830 5830 5830 5830 5830 5828 5826 5825 5823 5822 5820 5818 5816 5814 5810 5806 5802 5798 5794 5791
5820 5821 5822 5823 5824 5826 5824 5822 5823 5823 5823 5821 5823 5823 5822 5822 5822 5822 5820 5819 5817 5816 5814 5812 5810 5808 5805 5803 5798 5793 5790 5786 5784
5811 5813 5814 5813 5815 5814 5813 5812 5812 5812 5810 5811 5812 5813 5813 5813 5812 5811 5810 5811 5809 5807 5806 5804 5802 5798 5795 5792 5789 5785 5781 5778 5776
5805 5806 5805 5805 5803 5803 5804 5803 5803 5803 5803 5801 5802 5802 5805 5805 5806 5805 5803 5803 5803 5801 5798 5795 5792 5790 5787 5784 5780 5776 5774 5770 5769
5797 5792 5789 5796 5796 5793 5793 5794 5793 5794 5793 5792 5794 5794 5794 5794 5794 5795 5794 5793 5793 5792 5790 5786 5783 5780 5777 5774 5771 5767 5765 5762 5761